AUA66R LOWW-EPWA

Flight info

Callsign AUA66R
Flight time 1h 2m
Altitude 31000
Route LEDVA DCT NETIR DCT USALO DCT KOTEK M866 LOGDA
Aircraft A320/M-SDE3FGHIRWY/LB1

Departure

Time 2026-05-01 11:47
Airport Vienna International Airport (LOWW)

Arrival

Time 2026-05-01 12:50
Airport Warsaw Chopin Airport (EPWA)
Time Latitude Longitude Altitude Speed Heading
2026-05-01 11:20 48.11631 16.56505 599 ft 0 kts 205°
2026-05-01 11:41 48.11630 16.56504 599 ft 2 kts 205°
2026-05-01 11:41 48.11581 16.56436 599 ft 16 kts 233°
2026-05-01 11:41 48.11496 16.56402 598 ft 12 kts 135°
2026-05-01 11:42 48.11457 16.56509 599 ft 11 kts 116°
2026-05-01 11:42 48.11427 16.56601 600 ft 10 kts 116°
2026-05-01 11:42 48.11361 16.56808 602 ft 26 kts 115°
2026-05-01 11:42 48.11295 16.57012 618 ft 20 kts 115°
2026-05-01 11:43 48.11233 16.57200 614 ft 22 kts 115°
2026-05-01 11:43 48.11159 16.57429 604 ft 25 kts 116°
2026-05-01 11:43 48.11093 16.57632 611 ft 18 kts 116°
2026-05-01 11:44 48.10846 16.57873 614 ft 30 kts 162°
2026-05-01 11:44 48.10649 16.57956 619 ft 30 kts 162°
2026-05-01 11:44 48.10442 16.58047 620 ft 32 kts 166°
2026-05-01 11:44 48.10248 16.58127 618 ft 30 kts 162°
2026-05-01 11:45 48.10043 16.58214 615 ft 31 kts 164°
2026-05-01 11:45 48.09830 16.58303 611 ft 32 kts 164°
2026-05-01 11:45 48.09689 16.58368 612 ft 14 kts 160°
2026-05-01 11:45 48.09636 16.58473 605 ft 13 kts 88°
2026-05-01 11:46 48.09696 16.58558 612 ft 12 kts
2026-05-01 11:46 48.09820 16.58595 608 ft 25 kts
2026-05-01 11:46 48.10032 16.58618 601 ft 37 kts 357°
2026-05-01 11:46 48.10360 16.58502 598 ft 80 kts 343°
2026-05-01 11:47 48.11206 16.58141 614 ft 160 kts 344°
2026-05-01 11:47 48.12008 16.57794 748 ft 188 kts 342°
2026-05-01 11:47 48.13236 16.57352 1960 ft 176 kts 356°
2026-05-01 11:47 48.14452 16.57790 3074 ft 184 kts 24°
2026-05-01 11:48 48.15706 16.58831 3887 ft 210 kts 29°
2026-05-01 11:48 48.17019 16.60000 4627 ft 227 kts 30°
2026-05-01 11:48 48.18447 16.61214 5559 ft 231 kts 28°
2026-05-01 11:48 48.19916 16.62524 6490 ft 234 kts 32°
2026-05-01 11:49 48.21331 16.63893 7307 ft 242 kts 33°
2026-05-01 11:49 48.22786 16.65302 7930 ft 256 kts 33°
2026-05-01 11:49 48.24332 16.66765 8842 ft 261 kts 32°
2026-05-01 11:49 48.25948 16.68116 9818 ft 263 kts 29°
2026-05-01 11:50 48.27605 16.69387 10534 ft 275 kts 28°
2026-05-01 11:50 48.29300 16.70647 10984 ft 291 kts 27°
2026-05-01 11:50 48.31165 16.72020 11751 ft 297 kts 27°
2026-05-01 11:50 48.33045 16.73174 12550 ft 302 kts 15°
2026-05-01 11:51 48.33141 16.73208 12578 ft 302 kts 14°
2026-05-01 11:51 48.33252 16.73243 12622 ft 303 kts 12°
2026-05-01 11:51 48.35400 16.73521 13453 ft 307 kts
2026-05-01 11:51 48.37570 16.73796 14287 ft 310 kts
2026-05-01 11:52 48.39723 16.74119 14995 ft 312 kts
2026-05-01 11:52 48.41895 16.74458 15694 ft 315 kts
2026-05-01 11:52 48.44087 16.74799 16405 ft 318 kts
2026-05-01 11:52 48.46302 16.75134 17099 ft 321 kts
2026-05-01 11:53 48.48532 16.75460 17788 ft 324 kts
2026-05-01 11:53 48.50792 16.75783 18476 ft 328 kts
2026-05-01 11:53 48.53106 16.76113 19123 ft 329 kts
2026-05-01 11:53 48.55335 16.76423 20074 ft 322 kts
2026-05-01 11:54 48.57661 16.76752 20421 ft 333 kts
2026-05-01 11:54 48.59228 16.76976 20767 ft 336 kts
2026-05-01 11:54 48.61573 16.77313 21341 ft 339 kts
2026-05-01 11:54 48.63933 16.77650 21919 ft 342 kts
2026-05-01 11:55 48.66311 16.77991 22493 ft 344 kts
2026-05-01 11:55 48.68730 16.78345 23075 ft 346 kts 11°
2026-05-01 11:55 48.71068 16.79156 23614 ft 344 kts 23°
2026-05-01 11:55 48.73226 16.80798 24134 ft 343 kts 35°
2026-05-01 11:56 48.75034 16.83113 24586 ft 345 kts 47°
2026-05-01 11:56 48.76520 16.85897 25041 ft 347 kts 51°
2026-05-01 11:56 48.78049 16.88859 25503 ft 349 kts 51°
2026-05-01 11:56 48.79551 16.91759 25945 ft 351 kts 50°
2026-05-01 11:57 48.81064 16.94672 26370 ft 353 kts 50°
2026-05-01 11:57 48.82584 16.97597 26801 ft 356 kts 50°
2026-05-01 11:57 48.84126 17.00574 27238 ft 358 kts 50°
2026-05-01 11:57 48.85619 17.03459 27653 ft 360 kts 50°
2026-05-01 11:58 48.87133 17.06385 28058 ft 362 kts 50°
2026-05-01 11:58 48.88661 17.09347 28467 ft 364 kts 50°
2026-05-01 11:58 48.91792 17.15429 29264 ft 369 kts 50°
2026-05-01 11:59 48.93421 17.18598 29662 ft 371 kts 50°
2026-05-01 11:59 48.95030 17.21732 30057 ft 373 kts 50°
2026-05-01 11:59 48.96634 17.24858 30446 ft 375 kts 50°
2026-05-01 12:00 48.99887 17.31204 31109 ft 379 kts 50°
2026-05-01 12:00 49.01514 17.34383 31326 ft 381 kts 50°
2026-05-01 12:00 49.04668 17.40576 31381 ft 355 kts 50°
2026-05-01 12:01 49.06117 17.43435 31378 ft 341 kts 50°
2026-05-01 12:01 49.09033 17.49174 31383 ft 334 kts 50°
2026-05-01 12:02 49.11879 17.54767 31377 ft 333 kts 50°
2026-05-01 12:02 49.14676 17.60286 31379 ft 334 kts 50°
2026-05-01 12:03 49.17501 17.65894 31368 ft 334 kts 50°
2026-05-01 12:03 49.20349 17.71552 31365 ft 334 kts 50°
2026-05-01 12:04 49.23178 17.77171 31348 ft 333 kts 50°
2026-05-01 12:04 49.26005 17.82790 31349 ft 333 kts 50°
2026-05-01 12:05 49.28827 17.88419 31336 ft 333 kts 50°
2026-05-01 12:05 49.33047 17.96860 31335 ft 334 kts 51°
2026-05-01 12:06 49.35862 18.02511 31342 ft 334 kts 51°
2026-05-01 12:06 49.38652 18.08120 31342 ft 334 kts 51°
2026-05-01 12:07 49.41446 18.13750 31343 ft 334 kts 51°
2026-05-01 12:07 49.44214 18.19341 31347 ft 334 kts 51°
2026-05-01 12:08 49.46998 18.24982 31344 ft 333 kts 51°
2026-05-01 12:08 49.49794 18.30647 31347 ft 333 kts 51°
2026-05-01 12:09 49.52610 18.36363 31343 ft 333 kts 51°
2026-05-01 12:09 49.55402 18.42048 31344 ft 333 kts 51°
2026-05-01 12:10 49.59598 18.50611 31341 ft 333 kts 51°
2026-05-01 12:11 49.63761 18.59160 31341 ft 332 kts 51°
2026-05-01 12:11 49.66519 18.64832 31338 ft 332 kts 51°
2026-05-01 12:12 49.69309 18.70515 31334 ft 331 kts 47°
2026-05-01 12:12 49.72584 18.75379 31334 ft 330 kts 42°
2026-05-01 12:13 49.75857 18.80089 31330 ft 330 kts 42°
2026-05-01 12:13 49.79254 18.84997 31331 ft 330 kts 42°
2026-05-01 12:14 49.82581 18.89808 31332 ft 330 kts 42°
2026-05-01 12:14 49.85925 18.94659 31333 ft 330 kts 42°
2026-05-01 12:15 49.89266 18.99524 31332 ft 330 kts 43°
2026-05-01 12:15 49.92615 19.04412 31328 ft 330 kts 43°
2026-05-01 12:16 49.95878 19.09344 31329 ft 330 kts 45°
2026-05-01 12:16 49.99054 19.14592 31328 ft 331 kts 46°
2026-05-01 12:17 50.02178 19.19825 31327 ft 330 kts 46°
2026-05-01 12:17 50.05310 19.25027 31327 ft 330 kts 45°
2026-05-01 12:18 50.08358 19.30062 31320 ft 330 kts 45°
2026-05-01 12:18 50.11517 19.35296 31320 ft 330 kts 45°
2026-05-01 12:19 50.14659 19.40513 31319 ft 330 kts 45°
2026-05-01 12:19 50.17827 19.45775 31317 ft 330 kts 45°
2026-05-01 12:20 50.20962 19.51002 31316 ft 330 kts 46°
2026-05-01 12:20 50.24081 19.56226 31317 ft 329 kts 46°
2026-05-01 12:21 50.26609 19.60454 31316 ft 329 kts 46°
2026-05-01 12:21 50.29883 19.65393 31319 ft 328 kts 34°
2026-05-01 12:22 50.33688 19.69341 31318 ft 328 kts 34°
2026-05-01 12:22 50.37498 19.73294 31310 ft 328 kts 34°
2026-05-01 12:23 50.41334 19.77257 31303 ft 328 kts 34°
2026-05-01 12:23 50.44986 19.81035 31317 ft 328 kts 34°
2026-05-01 12:24 50.48747 19.84937 31299 ft 328 kts 34°
2026-05-01 12:24 50.52442 19.88775 31312 ft 328 kts 34°
2026-05-01 12:25 50.58179 19.94752 31313 ft 328 kts 34°
2026-05-01 12:26 50.61924 19.98660 31312 ft 328 kts 34°
2026-05-01 12:26 50.67553 20.04555 31292 ft 327 kts 34°
2026-05-01 12:27 50.73222 20.10498 31322 ft 338 kts 34°
2026-05-01 12:28 50.77281 20.14762 30999 ft 346 kts 34°
2026-05-01 12:28 50.79212 20.16799 30521 ft 343 kts 34°
2026-05-01 12:28 50.82954 20.20746 29478 ft 337 kts 35°
2026-05-01 12:29 50.84855 20.22754 28586 ft 344 kts 35°
2026-05-01 12:29 50.86839 20.24850 28225 ft 336 kts 35°
2026-05-01 12:29 50.90829 20.28622 26830 ft 340 kts 29°
2026-05-01 12:30 50.95123 20.31982 25615 ft 339 kts 28°
2026-05-01 12:30 50.97288 20.33642 25111 ft 335 kts 28°
2026-05-01 12:30 50.99342 20.35226 24620 ft 332 kts 28°
2026-05-01 12:31 51.01439 20.36859 24120 ft 330 kts 28°
2026-05-01 12:31 51.03437 20.38426 23596 ft 327 kts 28°
2026-05-01 12:31 51.05477 20.40033 23034 ft 325 kts 28°
2026-05-01 12:31 51.07503 20.41627 22508 ft 323 kts 28°
2026-05-01 12:32 51.09518 20.43210 21996 ft 321 kts 28°
2026-05-01 12:32 51.13454 20.46312 21039 ft 316 kts 28°
2026-05-01 12:32 51.13897 20.46661 20932 ft 316 kts 28°
2026-05-01 12:33 51.15537 20.47959 20544 ft 314 kts 28°
2026-05-01 12:33 51.17519 20.49528 20056 ft 313 kts 28°
2026-05-01 12:33 51.19449 20.51054 19622 ft 310 kts 28°
2026-05-01 12:33 51.21339 20.52552 19239 ft 307 kts 28°
2026-05-01 12:34 51.23270 20.54087 18851 ft 304 kts 28°
2026-05-01 12:34 51.25144 20.55579 18462 ft 300 kts 28°
2026-05-01 12:34 51.27006 20.57064 18071 ft 297 kts 28°
2026-05-01 12:34 51.28846 20.58532 17712 ft 292 kts 27°
2026-05-01 12:35 51.30629 20.59953 17362 ft 289 kts 28°
2026-05-01 12:35 51.32439 20.61397 17017 ft 285 kts 27°
2026-05-01 12:35 51.34210 20.62811 16668 ft 283 kts 27°
2026-05-01 12:35 51.35959 20.64210 16339 ft 280 kts 27°
2026-05-01 12:36 51.37697 20.65599 16001 ft 278 kts 27°
2026-05-01 12:36 51.39422 20.66978 15671 ft 276 kts 27°
2026-05-01 12:36 51.41132 20.68347 15343 ft 274 kts 27°
2026-05-01 12:36 51.42836 20.69715 15019 ft 273 kts 27°
2026-05-01 12:37 51.44523 20.71074 14696 ft 271 kts 27°
2026-05-01 12:37 51.46200 20.72422 14370 ft 270 kts 27°
2026-05-01 12:37 51.47878 20.73772 14040 ft 269 kts 27°
2026-05-01 12:37 51.49543 20.75113 13686 ft 267 kts 27°
2026-05-01 12:38 51.51195 20.76443 13373 ft 264 kts 27°
2026-05-01 12:38 51.52856 20.77782 13042 ft 262 kts 27°
2026-05-01 12:38 51.54501 20.79109 12724 ft 260 kts 27°
2026-05-01 12:38 51.56111 20.80409 12392 ft 259 kts 27°
2026-05-01 12:39 51.57738 20.81723 12056 ft 257 kts 27°
2026-05-01 12:39 51.59331 20.83011 11735 ft 256 kts 26°
2026-05-01 12:39 51.60915 20.84292 11409 ft 255 kts 26°
2026-05-01 12:39 51.62492 20.85567 11080 ft 255 kts 26°
2026-05-01 12:40 51.64102 20.86868 10739 ft 254 kts 26°
2026-05-01 12:40 51.65676 20.88144 10409 ft 253 kts 26°
2026-05-01 12:40 51.67250 20.89421 10048 ft 253 kts 26°
2026-05-01 12:40 51.68813 20.90689 9687 ft 251 kts 26°
2026-05-01 12:41 51.70374 20.91958 9346 ft 250 kts 26°
2026-05-01 12:41 51.71918 20.93217 8993 ft 249 kts 26°
2026-05-01 12:41 51.73459 20.94476 8647 ft 247 kts 26°
2026-05-01 12:41 51.74490 20.95318 8408 ft 246 kts 26°
2026-05-01 12:42 51.76036 20.96578 8045 ft 245 kts 26°
2026-05-01 12:42 51.77560 20.97817 7622 ft 246 kts 26°
2026-05-01 12:42 51.79122 20.99090 7048 ft 255 kts 26°
2026-05-01 12:42 51.80752 21.00424 6590 ft 257 kts 26°
2026-05-01 12:43 51.82343 21.01728 6181 ft 257 kts 26°
2026-05-01 12:43 51.83960 21.03050 5770 ft 257 kts 26°
2026-05-01 12:43 51.85555 21.04353 5373 ft 257 kts 26°
2026-05-01 12:43 51.87177 21.05679 4955 ft 259 kts 26°
2026-05-01 12:44 51.88789 21.07001 4530 ft 260 kts 26°
2026-05-01 12:44 51.90371 21.08303 4265 ft 255 kts 25°
2026-05-01 12:44 51.93385 21.10792 4071 ft 235 kts 26°
2026-05-01 12:45 51.96169 21.12976 3884 ft 211 kts 13°
2026-05-01 12:45 51.97597 21.13033 3791 ft 204 kts 346°
2026-05-01 12:45 51.98872 21.12121 3697 ft 198 kts 332°
2026-05-01 12:46 52.00069 21.11070 3626 ft 194 kts 332°
2026-05-01 12:46 52.01275 21.10024 3506 ft 191 kts 333°
2026-05-01 12:46 52.02450 21.09010 3338 ft 197 kts 334°
2026-05-01 12:46 52.03711 21.07915 3038 ft 204 kts 333°
2026-05-01 12:47 52.04968 21.06823 2756 ft 205 kts 333°
2026-05-01 12:47 52.06222 21.05731 2479 ft 206 kts 333°
2026-05-01 12:47 52.07465 21.04655 2199 ft 198 kts 333°
2026-05-01 12:47 52.08655 21.03619 1951 ft 190 kts 333°
2026-05-01 12:48 52.09778 21.02640 1731 ft 175 kts 333°
2026-05-01 12:48 52.10812 21.01739 1472 ft 158 kts 334°
2026-05-01 12:48 52.11745 21.00926 1282 ft 142 kts 334°
2026-05-01 12:48 52.12566 21.00209 1070 ft 127 kts 334°
2026-05-01 12:49 52.13329 20.99545 886 ft 119 kts 335°
2026-05-01 12:49 52.14047 20.98919 727 ft 117 kts 335°
2026-05-01 12:49 52.14762 20.98294 568 ft 115 kts 334°
2026-05-01 12:49 52.15469 20.97679 406 ft 115 kts 335°
2026-05-01 12:50 52.16117 20.97127 363 ft 86 kts 330°
2026-05-01 12:50 52.16491 20.96788 362 ft 36 kts 331°
2026-05-01 12:50 52.16651 20.96651 364 ft 25 kts 332°
2026-05-01 12:50 52.16803 20.96544 362 ft 24 kts 341°
2026-05-01 12:51 52.16968 20.96512 366 ft 24 kts
2026-05-01 12:51 52.17073 20.96537 361 ft 8 kts 36°
2026-05-01 12:51 52.17133 20.96706 365 ft 9 kts 63°
2026-05-01 12:52 52.17159 20.96790 363 ft 8 kts 64°
2026-05-01 12:52 52.17099 20.96889 364 ft 14 kts 150°
2026-05-01 12:52 52.17029 20.96929 365 ft 7 kts 210°
2026-05-01 12:53 52.16997 20.96847 362 ft 0 kts 242°